Location: ?????
(44.4284°N, 135.2222°E)
Time: 03:11:49
(UTC+00:00)

USA 245 - Pass Details

Date: 19 May 2025
Orbit: 292 x 1030 km, 97.9° (Epoch: 02 June)

Event Time Altitude Azimuth Distance (km) Brightness Sun altitude
Exits shadow 12:27:19 23° 189° (S) 1,295 4.8 -17.3°
Maximum altitude 12:29:49 58° 261° (W) 787 4.2 -17.6°
Drops below altitude 10° 12:34:56 10° 340° (NNW) 2,362 7.7 -18.1°
Sets 12:37:35 0° 345° (NNW) 3,416 8.7 -18.4°
